SCP
0 0 0 0 0 0 0 0 0 0 0 0 0 1 3 2 2 2 3 2 2 3 4 4 4 5 6 7 6 6 3 5 5 4 1 2 1 1 0 0 0 0 0
0 0 0 0 0 0 0 0 0 0 0 0 0 0 0 0 1 1 2 3 2 3 3 4 4 4 3 4 5 5 5 4 3 1 1 1 1 1 0 0 0 0 0
0 0 0 0 0 0 0 0 0 0 0 0 0 0 0 0 0 0 0 0 0 1 2 4 4 4 4 5 4 4 3 2 2 2 1 1 0 0 0 0 0 0 0
0 0 0 0 0 0 0 0 0 0 0 0 0 0 0 0 0 0 0 0 0 0 0 0 2 2 3 2 2 2 1 1 1 2 2 1 0 0 0 0 0 0 0
-0 -0 0 0 0 0 0 0 0 0 0 0 0 0 0 0 0 0 0 0 0 0 0 0 0 0 0 0 0 1 1 2 2 2 1 0 0 0 0 0 0 0 0
-0 -0 0 -0 0 0 0 0 0 0 0 0 0 0 0 0 0 0 0 0 0 0 0 0 0 0 0 0 0 0 0 0 1 1 2 0 0 0 0 0 0 0 0
-0 -0 -0 0 0 0 0 0 0 0 0 0 0 0 0 0 0 0 0 0 0 0 0 0 0 0 0 0 0 0 0 0 0 0 0 0 0 0 0 0 0 0 0
-0 -0 0 0 0 -0 0 0 0 0 0 0 0 0 0 0 0 0 0 0 0 0 0 0 0 0 0 0 0 0 0 0 0 0 0 0 0 0 0 0 0 0 0
0 0 0 0 0 0 -0 -0 -0 0 0 0 0 0 0 0 0 0 0 0 0 0 0 0 0 0 0 0 0 0 0 0 0 0 0 0 0 0 0 0 0 0 0
0 0 0 0 0 0 0 0 0 0 0 0 0 0 0 0 0 0 0 0 0 0 0 0 0 0 0 0 0 0 0 0 0 0 0 0 0 0 0 0 0 0 0
0 0 0 0 0 0 0 0 0 0 0 0 0 0 0 0 0 0 -0 0 0 0 0 0 0 0 0 0 0 0 0 0 0 0 0 0 0 0 0 0 0 0 0
0 0 0 0 0 0 0 0 0 0 0 0 0 0 0 0 0 0 0 0 0 0 0 0 0 0 0 0 0 0 0 0 0 0 0 0 0 0 0 0 0 0 0
-0 -0 0 0 0 0 0 0 0 0 0 0 0 0 0 0 0 0 0 0 0 0 0 0 0 0 0 0 0 0 0 0 0 0 0 0 0 0 0 0 0 0 0
-0 -0 -0 -0 0 0 0 0 0 0 0 0 0 0 0 0 0 0 0 0 0 0 0 0 0 0 0 0 0 0 0 0 0 0 0 0 0 0 0 0 0 0 0
-0 -0 -0 0 0 0 0 0 0 0 0 0 0 0 0 0 0 0 0 0 0 0 0 0 0 0 0 0 0 0 0 0 0 0 0 0 0 0 0 0 0 0 0
-0 -0 0 0 0 0 0 0 0 0 0 0 0 0 0 0 0 0 0 0 0 0 0 0 0 0 0 0 0 0 0 0 0 0 0 0 0 0 0 0 0 0 0
0 0 0 0 0 0 0 0 0 0 0 0 0 0 0 0 0 0 0 0 0 0 0 0 0 0 0 0 0 0 0 0 0 0 0 0 0 0 0 0 0 0 0
-0 -0 -0 0 0 0 0 0 0 0 -0 0 0 0 0 0 0 0 0 0 0 0 0 0 0 0 0 0 0 0 0 0 0 0 0 0 0 0 0 0 0 0 0
0 0 0 0 0 0 0 0 0 0 0 0 0 0 0 0 0 0 0 0 0 0 0 0 0 0 0 0 0 0 0 0 0 0 0 0 0 0 0 0 0 0 0
0 0 -0 0 0 0 0 0 0 0 0 0 0 0 0 0 0 0 0 0 0 0 0 0 0 0 0 0 0 0 0 0 0 0 0 0 0 0 0 0 0 0 0
0 0 -0 0 0 0 0 0 0 0 0 0 0 0 0 0 0 0 0 0 0 0 0 0 0 0 0 0 0 0 0 0 0 0 0 0 0 0 0 0 0 0 0
0 0 -0 -0 0 0 0 0 0 0 0 0 0 0 0 0 0 0 0 0 0 0 0 0 0 0 0 0 0 0 0 0 0 0 0 0 0 0 0 0 0 0 0
0 0 -0 -0 0 0 0 0 0 0 0 0 0 0 0 0 0 0 0 0 0 0 0 0 0 0 0 0 0 0 0 0 0 0 0 0 0 0 0 0 0 0 0
0 0 -0 -0 0 0 0 0 0 0 -0 0 0 0 0 -0 0 0 0 0 0 0 0 0 0 0 0 0 0 0 0 0 0 0 0 0 0 0 0 0 0 0 0
0 0 -0 -0 -0 0 0 0 0 -0 -0 -0 -0 0 0 0 0 0 0 0 0 0 0 0 0 0 0 0 0 0 0 0 0 0 0 -0 -0 -0 -0 0 0 0 0
0 0 -0 -0 0 0 0 0 -0 -0 -0 0 0 0 0 0 0 0 0 -0 -0 0 0 0 0 0 0 0 0 0 0 0 0 0 0 0 0 0 -0 -0 -0 0 -0
Wind_Speed_500mb
59 56 54 50 45 37 22 4 14 41 53 56 53 55 53 52 50 57 64 69 65 70 73 74 71 67 71 74 72 69 63 60 72 77 103 91 83 97 102 86 87 85 83
51 45 42 39 40 40 37 38 29 22 9 24 50 61 55 56 57 59 62 64 62 62 65 69 68 68 67 69 72 70 78 84 89 79 65 68 68 70 68 76 83 87 76
53 50 45 44 39 34 33 33 31 27 25 19 20 3 10 36 48 55 62 56 55 48 43 41 50 57 65 70 72 74 77 75 77 78 83 62 65 66 70 70 76 71 75
49 50 47 46 42 37 33 29 26 25 25 22 20 17 17 13 11 14 32 40 52 58 56 59 60 68 74 76 80 83 83 80 76 72 63 61 71 70 72 72 74 77 73
53 51 48 43 44 44 40 39 34 27 25 24 23 20 20 23 20 16 19 23 25 29 38 47 55 66 78 68 62 70 60 63 66 68 77 79 78 75 77 72 77 75 71
44 48 46 43 44 41 40 40 45 45 38 33 32 31 26 25 25 26 24 26 24 27 27 30 37 47 52 58 63 68 70 77 83 83 81 84 83 74 74 69 71 76 65
37 39 37 38 39 43 40 44 45 45 49 52 46 42 40 37 37 37 37 34 36 33 34 32 34 28 37 40 44 54 63 69 69 64 69 69 72 79 69 68 72 73 73
35 34 38 42 43 47 45 43 41 41 43 51 57 58 52 47 45 49 47 46 46 44 42 43 43 41 38 47 46 49 47 48 55 58 67 69 68 65 71 70 65 65 68
37 38 38 39 43 44 51 57 53 47 45 45 43 49 55 59 53 51 52 55 55 55 51 49 48 49 45 50 52 55 58 58 57 61 67 63 61 64 68 65 66 62 65
40 39 40 39 39 39 42 45 45 45 50 48 52 50 53 56 51 51 53 57 62 62 60 55 50 51 49 49 58 56 66 66 59 61 70 66 60 57 59 64 66 65 68
41 41 39 38 41 40 43 44 46 47 52 55 58 58 57 53 51 46 53 52 53 64 64 60 55 55 60 54 57 55 56 57 61 61 63 59 58 53 55 55 57 65 63
43 45 46 43 42 42 44 48 51 54 55 61 65 66 62 60 56 53 59 62 65 66 68 68 63 62 69 62 60 56 55 56 57 55 59 53 48 49 49 53 53 57 55
40 44 49 52 51 44 49 51 54 54 57 61 59 65 69 64 60 57 55 58 55 58 63 66 71 74 72 70 63 62 58 57 58 55 48 48 50 46 47 46 46 48 45
43 45 44 47 54 58 62 59 55 58 56 56 60 63 65 64 62 56 52 53 54 54 56 60 66 74 76 71 69 65 60 55 51 52 46 42 47 46 45 45 42 39 34
47 46 46 51 54 56 58 55 58 59 57 63 62 64 68 70 65 61 64 67 63 64 67 71 76 74 73 67 64 62 60 51 49 48 44 40 42 44 43 39 36 35 35
51 53 57 62 64 63 68 69 62 60 61 64 67 66 67 65 61 58 57 56 55 54 62 66 69 66 71 70 60 59 53 47 45 41 38 36 38 38 38 35 33 35 44
51 55 60 64 63 67 66 65 74 71 68 67 65 62 61 64 62 56 56 51 50 52 62 70 78 73 61 62 54 54 53 46 38 34 33 36 36 34 33 35 38 41 51
52 58 58 64 66 65 62 68 66 73 79 81 72 68 65 59 56 56 58 58 58 56 60 64 66 69 55 54 50 53 52 46 34 28 31 32 32 32 35 41 43 44 50
59 56 63 63 63 60 64 65 63 71 74 75 74 68 63 60 61 63 57 53 57 61 66 63 62 63 56 49 55 50 47 40 29 26 30 30 29 34 40 48 47 44 53
58 60 62 60 66 65 66 64 69 70 74 69 68 71 70 68 67 63 56 54 55 57 59 64 63 58 53 51 54 45 43 39 35 31 29 29 33 38 45 51 52 57 66
61 63 59 63 64 63 62 66 67 72 65 71 72 67 66 67 67 63 58 56 56 56 59 57 57 51 48 50 51 47 48 42 36 32 31 32 36 43 49 54 58 67 70
61 58 58 66 65 63 61 62 66 60 64 67 68 66 62 60 57 60 58 54 52 47 47 47 47 43 45 48 47 49 50 44 34 32 35 35 38 47 51 57 66 68 68
57 56 60 64 61 61 63 63 60 60 63 63 63 64 62 58 58 57 57 51 46 41 36 34 38 37 39 38 42 46 46 40 31 35 38 40 47 56 59 69 69 67 68
51 56 61 60 64 62 61 63 60 60 58 60 59 58 56 56 55 53 50 44 39 34 29 26 28 30 32 34 38 40 34 31 32 35 39 46 58 65 66 66 66 64 65
54 56 59 59 61 61 61 59 60 61 59 58 56 55 53 51 49 46 42 35 27 18 17 19 19 22 22 28 35 35 32 30 31 38 43 48 60 65 63 64 65 62 61
55 56 58 57 57 57 56 58 58 57 56 54 52 51 48 45 43 39 35 29 22 11 4 7 13 17 20 24 30 30 29 32 36 42 44 50 58 61 63 64 62 61 61
Wind_Direction_500mb
46 50 55 59 58 56 68 119 230 237 237 235 234 230 236 242 242 240 238 239 241 238 239 243 246 245 237 241 239 237 234 240 255 257 279 278 264 286 276 275 285 284 287
28 30 32 43 48 52 45 53 45 39 35 233 239 238 244 241 242 237 234 241 240 238 240 241 240 238 237 238 239 243 250 265 266 264 275 282 280 271 277 285 281 284 283
8 9 9 13 15 20 25 27 34 39 36 27 13 215 238 232 234 230 234 235 229 229 235 235 242 248 247 245 248 256 259 262 262 268 277 276 271 272 285 281 285 288 292
358 356 353 354 355 357 356 352 357 4 5 20 20 9 5 348 317 281 247 248 243 248 248 255 251 253 250 251 257 254 258 262 267 268 267 267 271 278 280 280 282 285 281
348 347 345 340 336 335 336 339 328 332 335 336 340 342 333 329 332 313 297 283 294 278 258 253 254 251 245 246 250 254 261 261 260 264 267 271 269 274 277 280 281 280 274
338 337 335 330 331 323 322 318 318 322 319 315 315 307 313 307 310 303 313 285 281 282 285 278 274 271 269 261 262 259 262 257 258 262 265 263 274 272 274 274 275 277 266
333 334 333 332 332 323 322 317 313 307 308 309 307 302 296 294 294 288 285 290 286 284 280 279 279 282 282 280 273 268 261 259 259 261 260 263 268 277 279 275 277 277 265
337 332 331 330 328 326 326 322 313 308 303 300 300 303 301 294 286 283 286 284 280 279 280 281 283 283 285 280 283 283 280 276 272 266 265 267 267 271 278 279 276 270 262
335 334 332 331 327 329 326 322 323 317 314 309 298 293 295 294 292 290 285 281 280 276 271 272 274 280 285 289 287 283 283 284 289 284 276 270 270 269 269 273 271 268 257
331 329 328 326 322 319 317 320 316 319 315 310 305 301 296 297 299 293 283 279 276 274 275 275 269 274 279 282 285 287 276 283 281 272 271 270 265 266 267 264 264 263 260
321 324 324 323 321 319 317 315 317 314 312 310 307 306 304 297 289 287 282 278 277 274 274 274 275 274 269 268 276 280 285 286 286 285 279 274 271 269 270 267 265 260 253
323 323 324 321 318 315 313 314 314 312 311 311 310 307 304 301 294 288 286 283 279 277 269 266 269 268 268 265 267 275 280 286 290 289 289 282 274 271 267 263 259 257 251
321 320 317 317 319 318 316 316 314 314 314 313 310 308 308 307 302 298 294 289 287 279 277 272 263 261 266 265 263 265 274 286 295 294 289 284 279 274 272 266 260 258 251
323 318 317 314 307 312 320 317 312 313 313 310 306 302 300 299 298 298 296 290 288 290 288 278 269 259 260 265 259 259 266 276 287 291 288 279 270 265 262 261 259 255 247
321 320 313 310 313 311 312 309 310 313 311 309 302 301 300 297 295 292 289 290 288 283 280 277 274 266 260 261 260 252 256 267 281 284 278 276 273 267 261 252 243 234 226
319 317 316 317 318 317 318 318 317 315 312 308 309 305 304 302 304 303 297 292 293 290 280 276 275 272 264 256 258 255 250 259 271 281 275 274 268 262 253 236 226 211 194
317 316 316 321 318 321 318 317 316 316 314 312 312 310 308 309 309 308 304 297 290 282 273 272 269 268 268 262 258 254 247 255 262 267 266 268 266 255 242 222 205 193 177
317 316 318 318 317 319 315 318 317 318 318 319 322 321 318 315 310 307 301 298 292 286 278 274 270 264 261 260 250 247 246 248 251 255 258 261 257 245 225 203 197 188 175
321 318 317 318 319 320 322 322 316 316 317 316 317 317 320 316 308 303 300 295 291 285 281 274 270 270 264 256 248 246 241 239 237 244 248 249 240 227 209 195 188 179 159
323 320 321 321 320 325 324 318 315 316 315 316 318 318 318 316 313 311 305 301 290 284 277 270 266 267 260 245 247 240 227 221 222 226 231 229 220 214 204 192 186 169 159
323 324 324 322 325 325 322 320 317 319 319 318 316 317 318 316 314 313 311 304 293 287 279 271 264 267 256 243 242 229 219 216 214 220 221 216 206 197 196 190 178 170 169
327 325 325 324 325 324 319 319 322 320 321 319 320 319 319 318 314 313 312 306 297 289 279 268 261 262 253 243 236 221 215 210 209 212 214 204 195 195 192 180 173 174 172
328 326 325 323 323 321 323 324 323 324 322 321 321 321 323 322 321 320 319 314 306 290 278 255 253 260 250 236 225 217 210 202 207 216 206 191 188 189 184 175 177 170 166
327 324 325 324 325 325 324 326 325 323 322 323 324 324 324 325 325 326 325 322 311 292 267 250 253 248 235 222 210 200 199 197 203 206 195 185 183 182 180 179 174 169 165
326 325 326 325 324 326 328 325 325 325 326 326 326 327 327 329 330 332 332 330 322 293 250 231 229 227 216 211 193 186 188 189 185 179 181 184 182 182 179 173 168 165 160
326 325 325 325 325 327 328 326 326 327 327 328 328 329 330 333 336 340 343 344 342 335 265 192 184 188 179 172 176 175 178 169 167 171 176 181 178 177 171 165 165 163 163
Wind_Speed_850mb
59 56 54 50 45 37 22 4 14 41 53 56 53 55 53 52 50 57 64 69 65 70 73 74 71 67 71 74 72 69 63 60 72 77 103 91 83 97 102 86 87 85 83
51 45 42 39 40 40 37 38 29 22 9 24 50 61 55 56 57 59 62 64 62 62 65 69 68 68 67 69 72 70 78 84 89 79 65 68 68 70 68 76 83 87 76
53 50 45 44 39 34 33 33 31 27 25 19 20 3 10 36 48 55 62 56 55 48 43 41 50 57 65 70 72 74 77 75 77 78 83 62 65 66 70 70 76 71 75
49 50 47 46 42 37 33 29 26 25 25 22 20 17 17 13 11 14 32 40 52 58 56 59 60 68 74 76 80 83 83 80 76 72 63 61 71 70 72 72 74 77 73
53 51 48 43 44 44 40 39 34 27 25 24 23 20 20 23 20 16 19 23 25 29 38 47 55 66 78 68 62 70 60 63 66 68 77 79 78 75 77 72 77 75 71
44 48 46 43 44 41 40 40 45 45 38 33 32 31 26 25 25 26 24 26 24 27 27 30 37 47 52 58 63 68 70 77 83 83 81 84 83 74 74 69 71 76 65
37 39 37 38 39 43 40 44 45 45 49 52 46 42 40 37 37 37 37 34 36 33 34 32 34 28 37 40 44 54 63 69 69 64 69 69 72 79 69 68 72 73 73
35 34 38 42 43 47 45 43 41 41 43 51 57 58 52 47 45 49 47 46 46 44 42 43 43 41 38 47 46 49 47 48 55 58 67 69 68 65 71 70 65 65 68
37 38 38 39 43 44 51 57 53 47 45 45 43 49 55 59 53 51 52 55 55 55 51 49 48 49 45 50 52 55 58 58 57 61 67 63 61 64 68 65 66 62 65
40 39 40 39 39 39 42 45 45 45 50 48 52 50 53 56 51 51 53 57 62 62 60 55 50 51 49 49 58 56 66 66 59 61 70 66 60 57 59 64 66 65 68
41 41 39 38 41 40 43 44 46 47 52 55 58 58 57 53 51 46 53 52 53 64 64 60 55 55 60 54 57 55 56 57 61 61 63 59 58 53 55 55 57 65 63
43 45 46 43 42 42 44 48 51 54 55 61 65 66 62 60 56 53 59 62 65 66 68 68 63 62 69 62 60 56 55 56 57 55 59 53 48 49 49 53 53 57 55
40 44 49 52 51 44 49 51 54 54 57 61 59 65 69 64 60 57 55 58 55 58 63 66 71 74 72 70 63 62 58 57 58 55 48 48 50 46 47 46 46 48 45
43 45 44 47 54 58 62 59 55 58 56 56 60 63 65 64 62 56 52 53 54 54 56 60 66 74 76 71 69 65 60 55 51 52 46 42 47 46 45 45 42 39 34
47 46 46 51 54 56 58 55 58 59 57 63 62 64 68 70 65 61 64 67 63 64 67 71 76 74 73 67 64 62 60 51 49 48 44 40 42 44 43 39 36 35 35
51 53 57 62 64 63 68 69 62 60 61 64 67 66 67 65 61 58 57 56 55 54 62 66 69 66 71 70 60 59 53 47 45 41 38 36 38 38 38 35 33 35 44
51 55 60 64 63 67 66 65 74 71 68 67 65 62 61 64 62 56 56 51 50 52 62 70 78 73 61 62 54 54 53 46 38 34 33 36 36 34 33 35 38 41 51
52 58 58 64 66 65 62 68 66 73 79 81 72 68 65 59 56 56 58 58 58 56 60 64 66 69 55 54 50 53 52 46 34 28 31 32 32 32 35 41 43 44 50
59 56 63 63 63 60 64 65 63 71 74 75 74 68 63 60 61 63 57 53 57 61 66 63 62 63 56 49 55 50 47 40 29 26 30 30 29 34 40 48 47 44 53
58 60 62 60 66 65 66 64 69 70 74 69 68 71 70 68 67 63 56 54 55 57 59 64 63 58 53 51 54 45 43 39 35 31 29 29 33 38 45 51 52 57 66
61 63 59 63 64 63 62 66 67 72 65 71 72 67 66 67 67 63 58 56 56 56 59 57 57 51 48 50 51 47 48 42 36 32 31 32 36 43 49 54 58 67 70
61 58 58 66 65 63 61 62 66 60 64 67 68 66 62 60 57 60 58 54 52 47 47 47 47 43 45 48 47 49 50 44 34 32 35 35 38 47 51 57 66 68 68
57 56 60 64 61 61 63 63 60 60 63 63 63 64 62 58 58 57 57 51 46 41 36 34 38 37 39 38 42 46 46 40 31 35 38 40 47 56 59 69 69 67 68
51 56 61 60 64 62 61 63 60 60 58 60 59 58 56 56 55 53 50 44 39 34 29 26 28 30 32 34 38 40 34 31 32 35 39 46 58 65 66 66 66 64 65
54 56 59 59 61 61 61 59 60 61 59 58 56 55 53 51 49 46 42 35 27 18 17 19 19 22 22 28 35 35 32 30 31 38 43 48 60 65 63 64 65 62 61
55 56 58 57 57 57 56 58 58 57 56 54 52 51 48 45 43 39 35 29 22 11 4 7 13 17 20 24 30 30 29 32 36 42 44 50 58 61 63 64 62 61 61
Wind_Direction_850mb
46 50 55 59 58 56 68 119 230 237 237 235 234 230 236 242 242 240 238 239 241 238 239 243 246 245 237 241 239 237 234 240 255 257 279 278 264 286 276 275 285 284 287
28 30 32 43 48 52 45 53 45 39 35 233 239 238 244 241 242 237 234 241 240 238 240 241 240 238 237 238 239 243 250 265 266 264 275 282 280 271 277 285 281 284 283
8 9 9 13 15 20 25 27 34 39 36 27 13 215 238 232 234 230 234 235 229 229 235 235 242 248 247 245 248 256 259 262 262 268 277 276 271 272 285 281 285 288 292
358 356 353 354 355 357 356 352 357 4 5 20 20 9 5 348 317 281 247 248 243 248 248 255 251 253 250 251 257 254 258 262 267 268 267 267 271 278 280 280 282 285 281
348 347 345 340 336 335 336 339 328 332 335 336 340 342 333 329 332 313 297 283 294 278 258 253 254 251 245 246 250 254 261 261 260 264 267 271 269 274 277 280 281 280 274
338 337 335 330 331 323 322 318 318 322 319 315 315 307 313 307 310 303 313 285 281 282 285 278 274 271 269 261 262 259 262 257 258 262 265 263 274 272 274 274 275 277 266
333 334 333 332 332 323 322 317 313 307 308 309 307 302 296 294 294 288 285 290 286 284 280 279 279 282 282 280 273 268 261 259 259 261 260 263 268 277 279 275 277 277 265
337 332 331 330 328 326 326 322 313 308 303 300 300 303 301 294 286 283 286 284 280 279 280 281 283 283 285 280 283 283 280 276 272 266 265 267 267 271 278 279 276 270 262
335 334 332 331 327 329 326 322 323 317 314 309 298 293 295 294 292 290 285 281 280 276 271 272 274 280 285 289 287 283 283 284 289 284 276 270 270 269 269 273 271 268 257
331 329 328 326 322 319 317 320 316 319 315 310 305 301 296 297 299 293 283 279 276 274 275 275 269 274 279 282 285 287 276 283 281 272 271 270 265 266 267 264 264 263 260
321 324 324 323 321 319 317 315 317 314 312 310 307 306 304 297 289 287 282 278 277 274 274 274 275 274 269 268 276 280 285 286 286 285 279 274 271 269 270 267 265 260 253
323 323 324 321 318 315 313 314 314 312 311 311 310 307 304 301 294 288 286 283 279 277 269 266 269 268 268 265 267 275 280 286 290 289 289 282 274 271 267 263 259 257 251
321 320 317 317 319 318 316 316 314 314 314 313 310 308 308 307 302 298 294 289 287 279 277 272 263 261 266 265 263 265 274 286 295 294 289 284 279 274 272 266 260 258 251
323 318 317 314 307 312 320 317 312 313 313 310 306 302 300 299 298 298 296 290 288 290 288 278 269 259 260 265 259 259 266 276 287 291 288 279 270 265 262 261 259 255 247
321 320 313 310 313 311 312 309 310 313 311 309 302 301 300 297 295 292 289 290 288 283 280 277 274 266 260 261 260 252 256 267 281 284 278 276 273 267 261 252 243 234 226
319 317 316 317 318 317 318 318 317 315 312 308 309 305 304 302 304 303 297 292 293 290 280 276 275 272 264 256 258 255 250 259 271 281 275 274 268 262 253 236 226 211 194
317 316 316 321 318 321 318 317 316 316 314 312 312 310 308 309 309 308 304 297 290 282 273 272 269 268 268 262 258 254 247 255 262 267 266 268 266 255 242 222 205 193 177
317 316 318 318 317 319 315 318 317 318 318 319 322 321 318 315 310 307 301 298 292 286 278 274 270 264 261 260 250 247 246 248 251 255 258 261 257 245 225 203 197 188 175
321 318 317 318 319 320 322 322 316 316 317 316 317 317 320 316 308 303 300 295 291 285 281 274 270 270 264 256 248 246 241 239 237 244 248 249 240 227 209 195 188 179 159
323 320 321 321 320 325 324 318 315 316 315 316 318 318 318 316 313 311 305 301 290 284 277 270 266 267 260 245 247 240 227 221 222 226 231 229 220 214 204 192 186 169 159
323 324 324 322 325 325 322 320 317 319 319 318 316 317 318 316 314 313 311 304 293 287 279 271 264 267 256 243 242 229 219 216 214 220 221 216 206 197 196 190 178 170 169
327 325 325 324 325 324 319 319 322 320 321 319 320 319 319 318 314 313 312 306 297 289 279 268 261 262 253 243 236 221 215 210 209 212 214 204 195 195 192 180 173 174 172
328 326 325 323 323 321 323 324 323 324 322 321 321 321 323 322 321 320 319 314 306 290 278 255 253 260 250 236 225 217 210 202 207 216 206 191 188 189 184 175 177 170 166
327 324 325 324 325 325 324 326 325 323 322 323 324 324 324 325 325 326 325 322 311 292 267 250 253 248 235 222 210 200 199 197 203 206 195 185 183 182 180 179 174 169 165
326 325 326 325 324 326 328 325 325 325 326 326 326 327 327 329 330 332 332 330 322 293 250 231 229 227 216 211 193 186 188 189 185 179 181 184 182 182 179 173 168 165 160
326 325 325 325 325 327 328 326 326 327 327 328 328 329 330 333 336 340 343 344 342 335 265 192 184 188 179 172 176 175 178 169 167 171 176 181 178 177 171 165 165 163 163